Location: Newark
(49.2191°N, 12.6671°E)
Time: 01:49:52
(UTC+00:00)

Transit 4A - Visible Passes

Search period start: 23 January 2020 00:00
Search period end: 02 February 2020 00:00
Orbit: 871 x 973 km, 66.8° (Epoch: 22 January)

Date Brightness Start Highest point End Pass type
(mag) Time Alt. Az. Time Alt. Az. Time Alt. Az.
23 Jan 9.1 05:48:33 10° S 05:54:15 46° ESE 05:59:52 10° NE visible
23 Jan 11.0 16:35:16 10° WNW 16:38:11 14° WSW 16:41:06 10° SW visible
24 Jan 11.0 04:16:15 10° ESE 04:18:14 12° E 04:20:13 10° E visible
24 Jan 8.4 05:57:32 10° SSW 06:03:29 65° ESE 06:09:19 10° NE visible
25 Jan 10.6 04:23:21 10° SE 04:27:13 18° ESE 04:31:01 10° ENE visible
25 Jan 7.9 06:06:45 10° SSW 06:12:47 88° SE 06:18:42 10° NE visible
26 Jan 10.0 04:31:25 10° SSE 04:36:15 26° ESE 04:41:01 10° NE visible
27 Jan 9.4 04:39:56 10° S 04:45:22 37° ESE 04:50:43 10° NE visible
28 Jan 8.7 04:48:46 10° SSW 04:54:34 52° ESE 05:00:15 10° NE visible
29 Jan 10.6 03:15:37 10° SE 03:18:27 14° ESE 03:21:15 10° ENE visible
29 Jan 8.1 04:57:50 10° SSW 05:03:49 73° ESE 05:09:41 10° NE visible
30 Jan 10.1 03:23:12 10° SSE 03:27:27 20° ESE 03:31:39 10° ENE visible
30 Jan 7.8 05:07:07 10° SW 05:13:08 83° NW 05:19:03 10° NE visible
31 Jan 9.5 03:31:28 10° SSE 03:36:32 29° ESE 03:41:31 10° NE visible
31 Jan 7.8 05:16:36 10° SW 05:22:32 62° NW 05:28:22 10° NNE visible
01 Feb 8.9 03:41:51 19° S 03:45:40 41° ESE 03:51:09 10° NE visible
01 Feb 8.1 05:26:16 10° WSW 05:32:00 46° NW 05:37:39 10° NNE visible
